Theta_e
360 351 355 357 354 351 353 350 351 339 345 346 348 345 348 348 350 351 349 350 349 348 349 349 349 349 347 348 349 348 349 347 347 349 348 348 348 343 340 341 342 345
349 349 351 354 354 350 352 346 347 349 343 344 346 348 348 350 348 349 351 348 348 346 347 345 346 348 348 346 348 347 349 348 346 347 346 347 348 345 338 339 339 342
349 348 346 344 344 345 342 347 348 344 348 347 346 346 344 345 348 353 351 349 346 346 346 347 345 346 347 347 348 347 344 347 346 346 349 346 344 341 340 336 340 337
350 349 346 344 347 342 346 347 349 344 346 349 345 347 345 344 345 345 348 346 346 346 346 344 344 344 345 346 347 347 345 346 346 347 347 346 344 343 341 341 339 337
350 347 348 347 347 348 349 344 343 343 343 345 344 348 348 350 348 345 345 345 346 343 342 343 345 344 346 346 346 346 346 348 348 347 345 345 347 343 342 342 340 338
351 351 352 349 348 348 345 342 343 343 347 339 347 347 348 348 348 344 343 341 338 338 339 340 341 343 344 344 347 347 348 347 346 346 343 342 343 344 341 339 339 337
349 349 346 347 345 346 345 346 346 347 345 345 346 345 346 344 344 344 344 342 341 342 340 341 342 342 343 344 344 345 346 347 344 344 344 343 344 344 340 341 341 336
349 347 347 349 345 347 345 345 346 348 346 346 342 343 345 341 343 341 342 343 341 341 342 342 342 343 340 340 340 341 344 341 340 342 341 341 342 341 342 338 339 336
349 348 347 347 345 344 338 338 338 342 341 340 341 341 344 345 344 344 345 343 341 341 343 342 344 343 342 340 340 341 341 340 340 339 343 340 337 339 340 340 337 335
347 348 344 339 337 340 337 336 336 337 342 343 344 342 342 346 345 341 339 340 340 339 339 341 343 346 343 341 341 341 341 339 339 340 341 340 338 338 338 338 334 333
343 342 341 342 339 335 335 334 333 333 339 337 338 338 342 338 341 346 345 340 338 339 341 340 343 345 343 341 341 343 341 339 340 338 336 338 340 338 335 336 334 331
343 341 340 340 340 338 336 338 338 340 335 332 335 335 342 338 339 337 336 338 340 340 339 340 341 347 344 344 345 339 338 339 342 343 340 338 338 338 337 335 334 332
342 343 343 339 343 342 342 339 335 333 333 336 332 331 332 333 334 334 338 340 339 339 340 341 340 339 343 346 345 343 342 343 340 337 338 339 338 336 335 333 332 332
342 344 343 345 345 350 347 344 342 344 345 344 342 339 334 334 332 336 337 336 337 339 340 339 338 338 346 346 340 338 338 335 334 333 333 336 338 338 336 333 332 332
347 345 346 347 345 347 344 344 345 345 344 343 343 341 339 336 336 337 339 338 337 337 337 339 338 340 340 338 338 337 340 336 334 331 332 336 336 335 333 332 332 332
349 348 347 347 346 344 345 345 343 344 342 342 342 341 343 343 343 344 336 333 334 337 340 339 338 336 337 334 332 338 339 338 335 334 335 335 335 334 332 331 331 330
347 347 346 346 347 345 346 344 344 344 344 344 344 344 344 345 340 336 332 335 334 332 332 336 333 333 329 327 328 330 337 339 337 335 334 332 330 329 329 330 331 331
346 347 346 346 346 347 346 346 345 345 345 345 345 343 345 343 339 339 340 341 336 333 335 334 336 331 322 324 327 327 331 337 337 333 331 330 330 329 329 329 330 331
347 346 346 346 346 346 347 346 345 343 343 344 342 346 344 340 340 337 336 338 338 341 337 338 336 329 322 322 324 324 327 332 336 336 333 333 333 332 331 331 332 332
346 345 345 345 347 346 346 346 345 345 345 342 343 346 341 337 337 338 339 339 340 343 344 341 338 329 320 319 320 321 324 328 336 335 335 335 335 333 331 333 336 330
346 346 344 346 346 345 345 344 345 345 345 343 340 339 338 339 338 339 343 338 339 340 340 337 330 325 319 318 317 317 319 324 332 334 335 336 336 335 335 335 332 332
345 345 344 344 345 345 343 343 347 346 344 348 345 341 337 336 337 337 334 334 339 340 337 336 333 319 319 317 316 316 319 328 332 333 334 334 333 334 334 337 336 333
343 343 343 342 343 343 342 340 340 340 341 341 339 334 332 334 336 335 335 335 339 338 339 338 338 328 316 316 316 316 319 330 333 333 333 333 334 333 333 334 335 333
342 342 341 342 342 341 341 343 341 341 342 346 339 333 332 332 333 338 335 344 337 332 332 333 331 327 315 314 316 317 321 329 333 334 333 334 332 332 335 333 333 338
343 343 342 342 342 342 340 336 339 343 346 337 334 335 335 337 334 331 336 332 327 326 332 332 329 326 312 317 317 315 322 332 335 335 332 332 333 333 332 329 330 331
344 346 344 341 341 340 341 347 345 347 335 336 336 332 331 331 332 331 333 329 328 328 327 327 328 329 334 318 314 314 315 328 335 333 330 330 331 331 330 330 334 331
Wind_Speed
3 4 3 1 3 3 2 1 2 2 2 2 2 3 3 2 3 2 3 2 3 3 3 3 3 3 4 3 3 3 3 4 4 3 3 3 3 3 4 4 3 2
5 4 4 2 3 3 2 4 2 1 2 2 3 3 3 2 3 3 2 2 3 3 3 4 4 4 4 4 3 4 3 3 4 2 2 2 1 2 4 5 4 3
4 4 6 6 5 6 4 2 2 3 3 2 2 2 4 4 3 2 2 2 3 3 3 3 5 4 4 4 3 4 4 3 3 2 2 2 3 4 4 5 4 7
6 5 4 4 2 2 3 2 3 5 4 4 3 2 2 3 3 3 3 4 3 4 3 4 5 6 5 4 4 4 3 3 3 2 2 2 3 4 4 4 5 4
6 5 4 3 3 3 3 3 2 2 3 3 2 2 3 2 3 3 3 4 3 4 5 5 4 5 5 4 4 4 3 2 1 1 3 3 3 2 2 2 1 3
4 3 3 4 3 3 3 4 5 2 2 4 3 2 2 2 2 3 4 4 5 6 5 5 5 4 4 4 3 3 2 2 3 3 3 3 3 2 2 1 2 3
4 4 4 3 4 4 4 3 3 3 2 3 3 4 3 3 4 4 5 5 5 5 6 6 5 6 5 4 4 4 3 4 4 3 2 3 2 1 2 2 1 3
4 5 4 4 4 4 4 4 3 3 4 4 4 5 4 4 5 5 4 5 5 5 6 6 6 6 7 6 6 4 3 3 5 3 4 3 3 2 1 1 1 2
5 5 4 4 4 4 6 6 6 8 9 8 6 3 4 5 4 3 3 5 6 6 6 6 5 6 4 5 7 5 4 4 5 4 2 4 5 2 2 1 1 2
6 4 5 6 7 5 6 5 5 5 3 4 4 3 3 2 3 5 7 7 7 7 7 6 6 1 2 4 4 4 3 5 5 4 4 5 5 3 2 1 2 2
6 6 6 5 5 5 6 7 8 4 2 1 2 3 3 6 6 3 3 5 7 6 5 5 5 4 5 6 7 3 4 4 3 3 5 8 6 4 3 2 2 3
7 5 6 6 7 6 6 4 2 2 5 7 5 6 3 3 4 5 6 7 6 6 6 5 5 4 7 7 5 6 5 4 3 2 3 5 6 5 3 3 2 3
8 7 5 5 5 5 4 3 5 7 6 4 4 6 6 4 5 8 7 5 5 5 5 4 5 7 6 6 4 4 4 5 5 6 8 7 6 7 5 5 5 4
8 7 7 6 4 3 3 4 3 3 3 4 3 4 7 8 7 4 4 4 5 5 4 5 6 8 4 2 5 4 5 3 0 6 11 12 8 6 6 7 7 7
6 5 5 6 6 5 5 4 4 4 5 6 5 5 5 7 6 4 3 5 5 6 7 6 7 4 5 1 2 3 3 5 6 7 11 11 7 7 7 8 8 7
6 5 5 5 5 6 5 5 5 6 6 6 6 5 4 4 4 3 4 6 7 6 4 5 5 3 2 9 7 4 4 5 7 7 6 7 7 8 9 9 9 8
6 6 6 6 6 5 4 5 6 5 5 5 5 4 4 4 5 7 6 3 5 6 7 2 3 2 4 12 11 14 9 6 4 4 5 6 7 8 9 9 9 9
7 7 7 7 6 5 5 5 5 5 5 5 4 4 4 5 5 5 3 2 4 7 2 3 4 5 9 12 11 11 10 6 5 5 5 6 5 7 8 9 10 10
8 8 8 8 7 6 6 5 5 5 5 4 5 3 4 5 5 5 5 5 6 3 3 3 2 3 7 9 8 7 9 9 6 7 7 7 7 7 8 9 10 3
8 8 7 7 6 7 6 5 4 4 4 4 4 3 5 6 6 5 4 4 4 4 3 2 2 5 6 7 8 9 10 7 6 8 8 7 7 7 8 8 4 2
9 8 7 6 6 6 6 5 5 4 4 5 4 4 6 5 5 4 3 4 4 4 3 4 2 7 7 7 8 10 11 6 6 7 8 7 6 8 9 7 6 7
9 8 7 6 6 6 6 5 4 3 4 4 3 4 6 6 5 4 6 7 4 3 3 3 3 12 11 10 9 9 8 5 6 7 7 7 6 7 7 5 4 6
8 8 8 8 7 6 6 6 6 6 7 6 4 6 9 8 5 5 5 4 3 4 3 3 2 5 8 8 9 9 4 5 6 6 6 7 6 6 6 6 4 7
9 8 8 8 7 7 5 4 6 8 7 6 6 7 9 8 6 3 4 1 3 5 4 3 3 7 10 11 10 7 4 5 5 5 6 6 6 6 5 6 7 7
8 8 7 7 7 6 5 6 6 5 5 7 8 8 7 5 5 7 2 3 6 7 6 5 4 3 10 11 9 8 5 4 5 5 5 6 5 5 5 6 6 7
7 7 7 6 6 5 5 3 3 5 7 7 6 6 7 7 7 3 4 8 8 4 4 5 7 7 4 9 10 8 2 2 3 4 5 6 5 5 6 6 4 3
Wind_Direction
95 143 95 203 84 80 40 326 89 347 304 273 314 320 313 332 300 285 297 312 308 306 307 300 295 293 282 285 291 294 293 291 299 301 323 328 312 320 311 305 299 306
153 151 122 117 150 112 173 196 204 157 327 292 261 265 285 280 281 286 315 308 305 300 309 303 300 297 299 292 289 292 281 282 294 317 325 310 309 290 309 314 316 323
153 159 158 180 197 193 172 144 144 221 224 275 311 286 268 254 263 311 310 291 282 287 282 284 288 295 289 281 286 290 289 288 275 306 300 298 299 302 302 313 337 355
159 167 168 186 181 154 153 173 212 203 221 216 228 292 325 317 296 283 281 296 293 284 287 278 268 267 263 272 274 271 282 278 284 283 274 284 295 303 315 350 13 336
161 159 169 188 170 169 155 211 264 300 242 243 254 236 247 261 286 292 291 285 282 279 273 273 265 259 262 260 264 268 268 273 280 292 267 250 247 292 331 29 328 294
144 145 156 167 180 167 177 208 217 246 303 276 251 266 250 260 282 285 285 295 295 291 287 279 281 286 277 270 271 268 254 273 255 239 267 283 294 280 337 320 274 292
154 152 171 174 185 184 204 219 227 225 283 311 279 257 279 282 263 258 258 253 256 267 280 284 293 289 284 288 274 261 252 243 252 263 288 273 257 276 218 248 288 322
166 163 174 179 195 189 197 219 220 233 211 219 241 242 238 245 256 265 266 262 264 279 282 292 294 298 300 285 274 271 271 269 267 265 263 270 261 259 253 262 315 319
162 169 176 184 199 193 223 221 220 219 218 229 234 263 236 242 249 262 293 296 281 269 267 264 260 265 291 313 305 294 276 264 269 280 275 266 269 277 288 333 294 313
162 178 191 203 198 196 216 240 269 270 241 220 217 225 258 269 268 260 247 248 258 265 265 267 265 197 245 264 278 289 300 298 292 290 278 265 272 273 271 267 294 284
169 179 191 204 230 237 232 237 231 264 66 264 260 265 268 258 247 241 277 278 267 261 265 272 275 210 245 243 250 235 248 257 270 284 285 284 277 268 254 253 259 270
169 186 200 204 205 212 225 241 304 337 265 259 236 237 229 255 263 249 244 248 258 266 262 255 267 221 220 241 245 259 256 262 259 248 260 260 259 262 259 255 244 260
170 177 196 215 202 201 219 240 237 251 273 319 330 282 275 282 274 260 246 251 262 270 278 298 293 290 272 235 267 340 354 334 333 316 286 267 271 276 273 272 254 248
170 176 185 198 211 208 203 204 223 243 254 248 259 284 278 270 275 288 309 302 299 291 299 286 276 271 245 58 82 261 251 260 262 284 288 280 270 268 268 268 260 245
159 168 178 182 193 198 201 209 217 220 220 229 226 235 253 264 272 292 299 290 283 280 271 262 274 356 58 9 248 265 237 253 269 255 249 256 252 252 256 261 260 249
149 166 181 186 194 197 200 202 214 215 226 228 230 232 244 258 265 251 273 267 261 261 271 283 30 65 252 214 234 248 251 229 231 241 268 287 279 268 263 261 260 253
158 177 192 194 190 199 208 219 217 220 225 232 237 219 235 252 249 248 248 277 299 297 280 17 114 207 279 287 265 245 237 238 257 262 266 279 287 288 281 273 263 254
171 184 190 193 195 193 209 216 228 231 231 240 233 224 227 230 248 246 241 249 264 266 288 152 213 202 206 225 228 247 259 254 255 268 268 267 278 286 287 286 287 279
180 190 189 192 189 195 202 217 224 233 244 250 252 225 219 233 232 231 232 225 234 233 207 228 183 236 265 277 284 283 260 249 261 270 275 278 277 285 287 284 282 24
190 190 194 194 189 191 194 218 227 239 241 242 250 233 230 239 236 235 238 241 248 217 251 242 195 212 241 277 298 294 276 262 274 282 283 279 277 290 293 296 313 129
184 189 195 196 193 187 200 206 220 214 239 245 238 248 251 232 230 231 239 258 230 198 229 243 238 170 216 249 261 260 263 268 270 272 274 274 280 284 282 275 287 290
184 184 195 198 193 194 198 208 185 151 231 251 262 279 271 258 242 229 232 242 218 207 250 234 162 175 199 197 225 246 264 252 243 248 261 270 276 278 282 284 276 278
185 186 195 197 197 198 205 214 210 207 224 221 235 255 260 250 237 229 242 268 257 233 177 214 234 202 207 208 222 232 232 245 245 254 267 274 273 276 297 306 280 212
187 190 192 195 194 202 211 213 199 211 204 164 194 236 246 242 242 252 272 254 335 295 238 187 229 219 188 208 228 241 219 259 256 247 247 263 280 286 287 290 314 302
189 191 194 192 196 203 209 230 212 204 183 202 213 222 240 258 266 270 306 6 288 276 277 230 259 137 193 228 229 239 227 252 255 250 259 265 267 262 259 288 294 284
192 188 190 195 199 207 225 215 208 201 204 207 214 227 244 247 249 232 178 202 231 261 294 327 355 348 290 236 239 237 303 306 267 254 268 276 274 275 283 281 282 318